TimeMDT,TemperatureF,Dew PointF,Humidity,Sea Level PressureIn,VisibilityMPH,Wind Direction,Wind SpeedMPH,Gust SpeedMPH,PrecipitationIn,Events,Conditions,WindDirDegrees,DateUTC
12:53 AM,46.9,43.0,86,29.69,10.0,North,12.7,-,N/A,,Overcast,350,2013-09-26 06:53:00
1:53 AM,46.9,43.0,86,29.69,10.0,NNW,11.5,-,N/A,,Overcast,330,2013-09-26 07:53:00
2:53 AM,46.9,42.1,83,29.70,10.0,North,10.4,18.4,N/A,,Overcast,360,2013-09-26 08:53:00
3:53 AM,46.9,43.0,86,29.69,10.0,NNW,10.4,-,0.00,Rain,Light Rain,330,2013-09-26 09:53:00
4:53 AM,46.0,43.0,89,29.69,8.0,North,12.7,-,0.01,Rain,Light Rain,360,2013-09-26 10:53:00
5:53 AM,46.0,44.1,93,29.69,10.0,NW,5.8,-,0.02,Rain,Light Rain,310,2013-09-26 11:53:00
6:51 AM,46.4,44.6,93,29.68,10.0,West,10.4,-,0.01,Rain,Light Rain,260,2013-09-26 12:51:00
6:53 AM,45.0,45.0,100,29.71,10.0,West,9.2,-,0.01,Rain,Light Rain,270,2013-09-26 12:53:00
7:53 AM,46.0,45.0,96,29.72,9.0,West,11.5,-,0.04,Rain,Light Rain,280,2013-09-26 13:53:00
8:03 AM,46.4,44.6,93,29.69,6.0,WNW,11.5,-,0.01,Rain,Light Rain,290,2013-09-26 14:03:00
8:11 AM,46.4,44.6,93,29.69,4.0,WNW,11.5,-,0.02,Rain,Rain,290,2013-09-26 14:11:00
8:53 AM,46.0,45.0,96,29.71,10.0,WNW,13.8,-,0.04,Rain,Light Rain,300,2013-09-26 14:53:00
9:53 AM,46.9,45.0,93,29.72,10.0,WNW,17.3,-,0.00,,Overcast,300,2013-09-26 15:53:00
10:07 AM,48.2,44.6,87,29.70,10.0,WNW,16.1,-,N/A,,Overcast,300,2013-09-26 16:07:00
10:53 AM,48.0,44.1,86,29.74,10.0,NW,21.9,28.8,N/A,,Overcast,310,2013-09-26 16:53:00
12:53 PM,46.0,41.0,83,29.81,7.0,NW,21.9,27.6,0.00,Rain,Light Rain,320,2013-09-26 18:53:00
1:13 PM,46.4,42.8,87,29.77,10.0,NW,21.9,28.8,0.00,Rain,Light Rain,310,2013-09-26 19:13:00
1:25 PM,48.2,42.8,82,29.77,10.0,NW,21.9,28.8,0.00,Rain,Light Rain,320,2013-09-26 19:25:00
1:53 PM,46.9,43.0,86,29.82,10.0,NW,17.3,25.3,0.00,Rain,Light Rain,310,2013-09-26 19:53:00
2:53 PM,48.0,42.1,80,29.84,10.0,WNW,17.3,24.2,0.00,,Overcast,300,2013-09-26 20:53:00
3:44 PM,51.8,44.6,76,29.82,10.0,WNW,15.0,-,0.00,,Overcast,290,2013-09-26 21:44:00
3:51 PM,48.2,42.8,82,29.82,10.0,WNW,18.4,27.6,0.00,,Overcast,300,2013-09-26 21:51:00
3:53 PM,48.9,43.0,80,29.85,10.0,NW,19.6,27.6,0.00,,Overcast,310,2013-09-26 21:53:00
4:06 PM,50.0,44.6,82,29.83,10.0,WNW,15.0,-,N/A,,Overcast,300,2013-09-26 22:06:00
4:53 PM,51.1,41.0,68,29.88,10.0,NW,17.3,26.5,N/A,,Overcast,310,2013-09-26 22:53:00
5:18 PM,51.8,39.2,62,29.86,10.0,NW,17.3,27.6,N/A,,Mostly Cloudy,310,2013-09-26 23:18:00
5:26 PM,51.8,39.2,62,29.86,10.0,WNW,17.3,-,N/A,,Mostly Cloudy,300,2013-09-26 23:26:00
5:53 PM,48.9,39.9,71,29.91,10.0,WNW,11.5,-,N/A,,Mostly Cloudy,300,2013-09-26 23:53:00
6:53 PM,48.0,41.0,77,29.92,10.0,West,8.1,-,N/A,,Mostly Cloudy,280,2013-09-27 00:53:00
7:53 PM,45.0,41.0,86,29.94,10.0,West,6.9,-,N/A,,Mostly Cloudy,270,2013-09-27 01:53:00
8:53 PM,44.1,39.0,82,29.94,10.0,WNW,8.1,-,N/A,,Clear,290,2013-09-27 02:53:00
9:53 PM,41.0,37.9,89,29.97,10.0,WSW,6.9,-,N/A,,Clear,240,2013-09-27 03:53:00
10:53 PM,39.0,36.0,89,29.96,10.0,West,5.8,-,N/A,,Clear,270,2013-09-27 04:53:00
11:53 PM,39.9,37.0,89,29.97,10.0,WNW,3.5,-,N/A,,Clear,300,2013-09-27 05:53:00